AFL1314 UUEE-URMM

Flight info

Callsign AFL1314
Flight time N/A
Altitude 35000
Route N0450F350 TOGMO M56 ABAGI B105 NIMTA/K0841F360 B105 NATIT DCT MOLED N50 LIDUS G242 ZG DCT ITAKA DCT OBBUD DCT AMKOL DCT GOTIK DCT MEMZA A962 OKARU
Aircraft A320/M-VGDW/C

Departure

Time N/A
Airport Sheremetyevo International Airport (UUEE)

Arrival

Time 2026-05-05 20:11
Airport Mineralnye Vody Airport (URMM)
Time Latitude Longitude Altitude Speed Heading
2026-05-05 19:17 44.26768 49.34227 35960 ft 416 kts 190°
2026-05-05 19:17 44.23979 49.33313 35956 ft 410 kts 204°
2026-05-05 19:18 44.21496 49.31409 35954 ft 407 kts 218°
2026-05-05 19:18 44.19477 49.28653 35953 ft 408 kts 232°
2026-05-05 19:18 44.18050 49.25235 35951 ft 411 kts 244°
2026-05-05 19:18 44.16916 49.21571 35949 ft 412 kts 244°
2026-05-05 19:19 44.14634 49.14225 35945 ft 413 kts 243°
2026-05-05 19:19 44.12345 49.06874 35951 ft 414 kts 243°
2026-05-05 19:20 44.10046 48.99517 35953 ft 415 kts 243°
2026-05-05 19:20 44.07732 48.92154 35956 ft 416 kts 243°
2026-05-05 19:21 44.05407 48.84790 35960 ft 416 kts 243°
2026-05-05 19:21 44.03074 48.77417 35966 ft 417 kts 243°
2026-05-05 19:22 44.00754 48.70088 35965 ft 417 kts 243°
2026-05-05 19:22 43.98418 48.62699 35968 ft 418 kts 243°
2026-05-05 19:23 43.96070 48.55313 35968 ft 418 kts 243°
2026-05-05 19:23 43.93707 48.47924 35971 ft 419 kts 243°
2026-05-05 19:24 43.91351 48.40530 35975 ft 419 kts 243°
2026-05-05 19:24 43.88977 48.33144 35986 ft 420 kts 243°
2026-05-05 19:25 43.86600 48.25753 35980 ft 420 kts 243°
2026-05-05 19:25 43.84211 48.18367 35981 ft 420 kts 243°
2026-05-05 19:26 43.81814 48.10977 35984 ft 421 kts 243°
2026-05-05 19:26 43.79423 48.03581 35986 ft 421 kts 243°
2026-05-05 19:27 43.77019 47.96180 35989 ft 422 kts 243°
2026-05-05 19:27 43.74601 47.88786 35989 ft 422 kts 243°
2026-05-05 19:28 43.72192 47.81439 35990 ft 423 kts 243°
2026-05-05 19:28 43.69762 47.74036 35993 ft 423 kts 243°
2026-05-05 19:29 43.67327 47.66632 35992 ft 424 kts 243°
2026-05-05 19:29 43.64884 47.59218 35993 ft 424 kts 243°
2026-05-05 19:30 43.62481 47.51776 35988 ft 426 kts 248°
2026-05-05 19:30 43.61318 47.43712 35990 ft 432 kts 260°
2026-05-05 19:31 43.60645 47.35451 35987 ft 433 kts 260°
2026-05-05 19:31 43.59951 47.27189 35991 ft 434 kts 260°
2026-05-05 19:32 43.59253 47.18906 35992 ft 435 kts 260°
2026-05-05 19:32 43.58557 47.10659 35991 ft 436 kts 260°
2026-05-05 19:33 43.57847 47.02356 35997 ft 436 kts 260°
2026-05-05 19:33 43.57133 46.94038 35992 ft 437 kts 260°
2026-05-05 19:34 43.56409 46.85702 35993 ft 438 kts 260°
2026-05-05 19:35 43.55304 46.73192 36006 ft 439 kts 260°
2026-05-05 19:35 43.54563 46.64836 36001 ft 439 kts 260°
2026-05-05 19:36 43.53810 46.56483 36007 ft 440 kts 260°
2026-05-05 19:36 43.53054 46.48110 36004 ft 441 kts 260°
2026-05-05 19:37 43.52298 46.39726 36016 ft 441 kts 260°
2026-05-05 19:37 43.51525 46.31340 36008 ft 441 kts 260°
2026-05-05 19:38 43.50746 46.22948 36007 ft 442 kts 260°
2026-05-05 19:38 43.49968 46.14532 36014 ft 443 kts 260°
2026-05-05 19:39 43.49203 46.06181 36023 ft 444 kts 263°
2026-05-05 19:39 43.49497 45.97657 36024 ft 448 kts 274°
2026-05-05 19:40 43.50211 45.89129 36026 ft 448 kts 274°
2026-05-05 19:40 43.50927 45.80598 36028 ft 449 kts 274°
2026-05-05 19:41 43.51630 45.72045 36007 ft 449 kts 274°
2026-05-05 19:41 43.52325 45.63493 36006 ft 450 kts 274°
2026-05-05 19:42 43.53009 45.54928 36007 ft 450 kts 274°
2026-05-05 19:42 43.53689 45.46355 36011 ft 450 kts 274°
2026-05-05 19:43 43.54360 45.37832 36016 ft 450 kts 274°
2026-05-05 19:43 43.55025 45.29245 36025 ft 451 kts 274°
2026-05-05 19:44 43.55691 45.20647 36031 ft 451 kts 274°
2026-05-05 19:44 43.56358 45.12049 36035 ft 451 kts 274°
2026-05-05 19:45 43.57011 45.03438 36033 ft 451 kts 274°
2026-05-05 19:45 43.57646 44.94825 36030 ft 452 kts 274°
2026-05-05 19:46 43.58279 44.86209 36031 ft 452 kts 274°
2026-05-05 19:46 43.58909 44.77585 36031 ft 452 kts 274°
2026-05-05 19:47 43.59536 44.69002 36031 ft 453 kts 274°
2026-05-05 19:47 43.60167 44.60359 36030 ft 453 kts 274°
2026-05-05 19:48 43.60784 44.51705 36029 ft 453 kts 274°
2026-05-05 19:48 43.61385 44.43042 36027 ft 453 kts 274°
2026-05-05 19:49 43.61981 44.34385 36019 ft 453 kts 274°
2026-05-05 19:49 43.62577 44.25720 36015 ft 453 kts 274°
2026-05-05 19:50 43.63518 44.17116 36013 ft 456 kts 285°
2026-05-05 19:50 43.66289 44.09249 36003 ft 460 kts 304°
2026-05-05 19:51 43.70523 44.02604 35996 ft 461 kts 311°
2026-05-05 19:51 43.74836 43.96109 36003 ft 461 kts 311°
2026-05-05 19:52 43.79160 43.89562 36021 ft 460 kts 311°
2026-05-05 19:52 43.83534 43.83095 36022 ft 460 kts 316°
2026-05-05 19:53 43.88784 43.78080 35921 ft 458 kts 330°
2026-05-05 19:53 43.91566 43.75984 35516 ft 452 kts 330°
2026-05-05 19:53 43.94312 43.73918 35093 ft 446 kts 330°
2026-05-05 19:53 43.97030 43.71869 34662 ft 442 kts 330°
2026-05-05 19:54 43.99716 43.69836 34251 ft 437 kts 330°
2026-05-05 19:54 44.02369 43.67822 33799 ft 433 kts 330°
2026-05-05 19:54 44.04996 43.65824 33312 ft 428 kts 330°
2026-05-05 19:54 44.07562 43.63870 32847 ft 424 kts 330°
2026-05-05 19:55 44.10136 43.61909 32390 ft 420 kts 330°
2026-05-05 19:55 44.12687 43.59966 31937 ft 416 kts 330°
2026-05-05 19:55 44.15209 43.58047 31493 ft 411 kts 330°
2026-05-05 19:55 44.17707 43.56144 31055 ft 407 kts 330°
2026-05-05 19:56 44.20182 43.54258 30623 ft 404 kts 330°
2026-05-05 19:56 44.22633 43.52386 30196 ft 400 kts 330°
2026-05-05 19:56 44.25054 43.50507 29703 ft 396 kts 327°
2026-05-05 19:56 44.27192 43.48148 29201 ft 391 kts 313°
2026-05-05 19:57 44.28856 43.45191 28697 ft 386 kts 302°
2026-05-05 19:57 44.29815 43.43108 28340 ft 385 kts 302°
2026-05-05 19:57 44.31754 43.38925 27676 ft 381 kts 302°
2026-05-05 19:57 44.33194 43.35832 27201 ft 378 kts 302°
2026-05-05 19:58 44.34605 43.32801 26713 ft 376 kts 302°
2026-05-05 19:58 44.36022 43.29749 26250 ft 373 kts 302°
2026-05-05 19:58 44.37427 43.26713 25796 ft 371 kts 302°
2026-05-05 19:58 44.38824 43.23694 25342 ft 369 kts 302°
2026-05-05 19:59 44.40210 43.20696 24900 ft 366 kts 302°
2026-05-05 19:59 44.41587 43.17710 24469 ft 364 kts 302°
2026-05-05 19:59 44.42952 43.14743 24044 ft 361 kts 302°
2026-05-05 19:59 44.44307 43.11792 23533 ft 361 kts 302°
2026-05-05 20:00 44.45676 43.08811 22494 ft 365 kts 302°
2026-05-05 20:00 44.47047 43.05825 21517 ft 365 kts 302°
2026-05-05 20:00 44.47950 43.03839 20887 ft 364 kts 300°
2026-05-05 20:00 44.48892 42.99373 19647 ft 361 kts 268°
2026-05-05 20:01 44.48297 42.95998 18757 ft 360 kts 242°
2026-05-05 20:01 44.46699 42.93346 17815 ft 360 kts 216°
2026-05-05 20:01 44.45269 42.92182 17160 ft 360 kts 204°
2026-05-05 20:01 44.42065 42.90843 15892 ft 361 kts 185°
2026-05-05 20:02 44.39622 42.91148 15401 ft 348 kts 163°
2026-05-05 20:02 44.37510 42.92656 14929 ft 338 kts 141°
2026-05-05 20:02 44.36020 42.95108 14472 ft 329 kts 117°
2026-05-05 20:02 44.35363 42.98098 14012 ft 320 kts 94°
2026-05-05 20:03 44.35622 43.01117 13531 ft 311 kts 69°
2026-05-05 20:03 44.36719 43.03637 13006 ft 302 kts 43°
2026-05-05 20:03 44.37804 43.04808 12653 ft 295 kts 26°
2026-05-05 20:03 44.40392 43.05561 11966 ft 282 kts 350°
2026-05-05 20:04 44.41631 43.05102 11632 ft 276 kts 335°
2026-05-05 20:04 44.43352 43.03962 11133 ft 272 kts 332°
2026-05-05 20:04 44.44884 43.02488 10647 ft 265 kts 310°
2026-05-05 20:04 44.45766 43.00272 10159 ft 261 kts 289°
2026-05-05 20:05 44.46062 42.97803 9658 ft 258 kts 265°
2026-05-05 20:05 44.45464 42.95477 9125 ft 257 kts 234°
2026-05-05 20:05 44.44128 42.93848 8596 ft 255 kts 215°
2026-05-05 20:05 44.42652 42.92492 8098 ft 253 kts 215°
2026-05-05 20:06 44.41181 42.91172 7587 ft 250 kts 214°
2026-05-05 20:06 44.39711 42.89892 7087 ft 247 kts 214°
2026-05-05 20:06 44.38255 42.88635 6601 ft 245 kts 214°
2026-05-05 20:06 44.36817 42.87390 6092 ft 242 kts 214°
2026-05-05 20:07 44.35388 42.86160 5579 ft 240 kts 210°
2026-05-05 20:07 44.33808 42.85625 5078 ft 241 kts 173°
2026-05-05 20:07 44.32317 42.86587 4572 ft 241 kts 134°
2026-05-05 20:07 44.31454 42.88566 4082 ft 238 kts 116°
2026-05-05 20:08 44.30669 42.90568 3718 ft 232 kts 121°
2026-05-05 20:08 44.29840 42.92434 3413 ft 218 kts 122°
2026-05-05 20:08 44.29057 42.94166 3133 ft 204 kts 122°
2026-05-05 20:08 44.28337 42.95764 2870 ft 185 kts 122°
2026-05-05 20:09 44.27680 42.97222 2626 ft 171 kts 122°
2026-05-05 20:09 44.27068 42.98580 2405 ft 159 kts 122°
2026-05-05 20:09 44.26505 42.99828 2167 ft 148 kts 122°
2026-05-05 20:09 44.25966 43.01022 1956 ft 144 kts 122°
2026-05-05 20:10 44.25435 43.02201 1749 ft 143 kts 122°
2026-05-05 20:10 44.24917 43.03380 1566 ft 143 kts 121°
2026-05-05 20:10 44.24390 43.04550 1388 ft 142 kts 123°
2026-05-05 20:10 44.23857 43.05705 1196 ft 141 kts 122°
2026-05-05 20:11 44.23332 43.06839 1053 ft 131 kts 123°
2026-05-05 20:11 44.22956 43.07661 1050 ft 59 kts 122°
2026-05-05 20:11 44.22811 43.07989 1048 ft 37 kts 121°
2026-05-05 20:11 44.22681 43.08278 1050 ft 34 kts 122°
2026-05-05 20:12 44.22561 43.08550 1055 ft 32 kts 121°
2026-05-05 20:12 44.22423 43.08789 1053 ft 32 kts 142°
2026-05-05 20:12 44.22231 43.08935 1053 ft 31 kts 154°
2026-05-05 20:12 44.22041 43.09070 1052 ft 30 kts 150°
2026-05-05 20:13 44.21907 43.09100 1051 ft 18 kts 208°
2026-05-05 20:13 44.21803 43.09031 1051 ft 15 kts 206°
2026-05-05 20:13 44.21757 43.08988 1051 ft 4 kts 214°
2026-05-05 20:13 44.21751 43.08982 1051 ft 0 kts 214°